Weather History for Stuart, FL

Change the Weather History Date:

Tuesday, January 22, 2013

  Actual Average Record
Temperature  
Mean Temperature 66 °F -  
Max Temperature 71 °F 74 °F 85 °F (1952)
Min Temperature 62 °F 54 °F 23 °F (1985)
Cooling Degree Days 2    
Growing Degree Days 16 (Base 50)    
Moisture  
Dew Point 54 °F    
Average Humidity 67    
Maximum Humidity 94    
Minimum Humidity 46    
Precipitation  
Precipitation 0.00 in - - ()
Sea Level Pressure  
Sea Level Pressure 30.14 in    
Wind  
Wind Speed 9 mph (North)    
Max Wind Speed 20 mph    
Max Gust Speed 30 mph    
Visibility 10 miles    
Events      
Averages and records for this station are not official NWS values.
T = Trace of Precipitation, MM = Missing Value Source: NWS Daily Summary

Daily Weather History Graph

Daily Weather History Graph

Search for Another Location

Airport:

Trip Planner

Search our weather history database for the weather conditions in past years. The results will help you decide how hot, cold, wet, or windy it might be!

Date:

Astronomy

Jan. 22, 2013 Rise Set
Actual Time 7:10 AM EST 5:54 PM EST
Civil Twilight 6:45 AM EST 6:19 PM EST
Nautical Twilight 6:17 AM EST 6:47 PM EST
Astronomical Twilight 5:49 AM EST 7:15 PM EST
Moon 2:20 PM EST 3:27 AM EST
Length of Visible Light 11h 33m
Length of Day
10h 44m
Waxing Gibbous, 82% of the Moon is Illuminated
Jan 22
Waxing Gibbous
Jan 26
Full
Feb 3
Last Quarter
Feb 10
New
Feb 17
First Quarter

Hourly Weather History & Observations

Time (EST) Temp. Dew Point Humidity Pressure Visibility Wind Dir Wind Speed Gust Speed Precip Events Conditions
12:15 AM 66.2 °F 62.6 °F 88% 30.05 in 10.0 mi WNW 6.9 mph - N/A   Overcast
12:35 AM 66.2 °F 62.6 °F 88% 30.05 in 10.0 mi WNW 6.9 mph - N/A   Overcast
12:55 AM 64.4 °F 62.6 °F 94% 30.05 in 10.0 mi NW 5.8 mph - N/A   Mostly Cloudy
1:15 AM 64.4 °F 60.8 °F 88% 30.05 in 10.0 mi NW 5.8 mph - N/A   Clear
1:35 AM 64.4 °F 60.8 °F 88% 30.05 in 10.0 mi NNW 6.9 mph - N/A   Clear
1:55 AM 64.4 °F 60.8 °F 88% 30.04 in 10.0 mi NNW 5.8 mph - N/A   Scattered Clouds
2:15 AM 64.4 °F 60.8 °F 88% 30.04 in 10.0 mi NNW 5.8 mph - N/A   Scattered Clouds
2:55 AM 64.4 °F 60.8 °F 88% 30.03 in 10.0 mi NNW 5.8 mph - N/A   Clear
3:15 AM 64.4 °F 60.8 °F 88% 30.03 in 10.0 mi NNW 8.1 mph - N/A   Clear
3:35 AM 64.4 °F 60.8 °F 88% 30.02 in 10.0 mi NNW 8.1 mph - N/A   Clear
3:55 AM 64.4 °F 60.8 °F 88% 30.03 in 10.0 mi NNW 8.1 mph - N/A   Clear
4:15 AM 64.4 °F 59.0 °F 83% 30.03 in 10.0 mi NNW 6.9 mph - N/A   Clear
4:35 AM 64.4 °F 59.0 °F 83% 30.03 in 10.0 mi NNW 6.9 mph - N/A   Clear
4:55 AM 64.4 °F 59.0 °F 83% 30.04 in 10.0 mi NW 6.9 mph - N/A   Clear
5:15 AM 64.4 °F 59.0 °F 83% 30.05 in 10.0 mi NW 5.8 mph - N/A   Clear
6:47 AM 62.6 °F 59.0 °F 88% 30.09 in 10.0 mi NW 5.8 mph - N/A   Scattered Clouds
8:47 AM 64.4 °F 55.4 °F 73% 30.13 in 7.0 mi NNW 5.8 mph - N/A   Mostly Cloudy
9:47 AM 68.0 °F 57.2 °F 68% 30.15 in 6.0 mi NNW 6.9 mph - N/A   Haze
11:47 AM 71.6 °F 55.4 °F 57% 30.17 in 7.0 mi North 11.5 mph 23.0 mph N/A   Scattered Clouds
12:47 PM 71.6 °F 55.4 °F 57% 30.14 in 10.0 mi North 18.4 mph 26.5 mph N/A   Mostly Cloudy
1:47 PM 71.6 °F 55.4 °F 57% 30.15 in 10.0 mi North 17.3 mph 29.9 mph N/A   Mostly Cloudy
2:55 PM 71.6 °F 50.0 °F 46% 30.15 in 10.0 mi North 19.6 mph 26.5 mph N/A   Scattered Clouds
3:55 PM 69.8 °F 48.2 °F 46% 30.15 in 10.0 mi North 18.4 mph 25.3 mph N/A   Scattered Clouds
5:50 PM 68.0 °F 51.8 °F 56% 30.18 in 10.0 mi North 15.0 mph 23.0 mph N/A   Scattered Clouds
6:47 PM 66.2 °F 51.8 °F 60% 30.20 in 7.0 mi North 10.4 mph - N/A   Scattered Clouds
7:15 PM 66.2 °F 50.0 °F 56% 30.21 in 10.0 mi North 12.7 mph 23.0 mph N/A   Clear
7:35 PM 66.2 °F 50.0 °F 56% 30.21 in 10.0 mi North 15.0 mph 21.9 mph N/A   Clear
7:55 PM 66.2 °F 50.0 °F 56% 30.22 in 10.0 mi North 13.8 mph 21.9 mph N/A   Clear
8:15 PM 66.2 °F 50.0 °F 56% 30.22 in 10.0 mi North 11.5 mph 19.6 mph N/A   Scattered Clouds
8:35 PM 66.2 °F 50.0 °F 56% 30.23 in 10.0 mi NNE 13.8 mph 18.4 mph N/A   Clear
8:55 PM 66.2 °F 46.4 °F 49% 30.23 in 10.0 mi North 12.7 mph 21.9 mph N/A   Clear
9:15 PM 66.2 °F 48.2 °F 52% 30.24 in 10.0 mi North 10.4 mph 20.7 mph N/A   Scattered Clouds
9:35 PM 66.2 °F 46.4 °F 49% 30.25 in 10.0 mi NNE 11.5 mph 17.3 mph N/A   Scattered Clouds
9:55 PM 66.2 °F 46.4 °F 49% 30.25 in 10.0 mi NNE 11.5 mph 18.4 mph N/A   Clear
10:15 PM 66.2 °F 46.4 °F 49% 30.25 in 10.0 mi NNE 10.4 mph - N/A   Clear
10:35 PM 66.2 °F 46.4 °F 49% 30.25 in 10.0 mi NNE 10.4 mph - N/A   Clear
10:55 PM 66.2 °F 46.4 °F 49% 30.25 in 10.0 mi NNE 10.4 mph 17.3 mph N/A   Clear
11:15 PM 66.2 °F 46.4 °F 49% 30.26 in 10.0 mi NNE 10.4 mph - N/A   Clear
11:35 PM 66.2 °F 46.4 °F 49% 30.25 in 10.0 mi NNE 8.1 mph - N/A   Clear
11:55 PM 66.2 °F 48.2 °F 52% 30.26 in 10.0 mi North 8.1 mph - N/A   Clear